Lid_Strength_Index
13 13 9 4 1 -0 -1 -2 -2 -2 -2 -2 -2 -2 -2 -2 -2 -2 -2 -1 -1 -1 -1 -1 -1 -1 -1 -1 -1 -1 -1 -1 -1 -1 -1 -1 -1 -1 -1 -1 -1 -1 -2
13 13 9 5 2 1 0 -1 -2 -2 -2 -2 -2 -2 -2 -2 -2 -2 -1 -2 -2 -2 -1 -1 -1 -1 -1 -1 -1 -1 -1 -1 -1 -1 -1 -0 -1 -2 -1 -2 -1 -1 -1
14 13 13 5 4 2 1 0 -1 -1 -2 -2 -2 -2 -2 -2 -2 -2 -2 -2 -2 -2 -2 -2 -1 -1 -1 -1 -2 -1 -1 -1 -1 -1 -1 -0 -0 -1 -1 -2 -2 -1 -1
13 13 13 5 4 3 2 1 1 -0 -1 -1 -2 -2 -2 -2 -2 -2 -2 -1 -1 -1 -1 -1 -2 -2 -2 -2 -2 -1 -1 -1 -1 -1 -0 -1 -1 -2 -1 -1 -1 -1 -1
13 14 13 7 6 4 3 3 2 1 0 0 -0 -1 -1 -2 -2 -2 -2 -2 -1 -1 -1 -1 -2 -2 -2 -2 -2 -1 -1 -1 -1 -1 -0 -0 -0 -2 -1 -1 -1 -1 -2
14 14 13 8 7 6 5 4 3 2 1 1 1 0 0 -1 -2 -2 -2 -2 -2 -2 -1 -1 -2 -2 -2 -2 -2 -1 -1 -1 -1 -0 0 -1 -1 -2 -2 -1 -2 -1 -1
14 15 15 10 8 7 6 5 5 4 3 2 2 1 1 1 -0 -1 -1 -2 -2 -2 -1 -1 -1 -2 -2 -2 -2 -2 -1 -1 -0 0 0 0 -1 -2 -2 -1 -2 -1 -1
15 14 15 12 11 9 7 6 6 5 5 4 3 3 3 2 2 1 -0 -1 -2 -1 -1 -1 -1 -1 -2 -2 -2 -2 -1 -0 -0 -0 0 0 -1 -2 -2 -2 -2 -2 -1
15 16 16 15 13 12 9 8 7 6 6 6 5 5 5 5 4 3 2 1 -2 -1 -1 -1 -1 -1 -2 -2 -2 -1 -1 -0 0 -0 -0 0 -1 -2 -2 -2 -2 -2 -1
15 15 16 15 15 15 13 10 9 8 7 7 7 7 7 7 7 5 5 3 1 -1 -1 -1 -1 -1 -2 -1 -1 -1 -0 -0 -0 -0 -0 0 -2 -2 -2 -2 -2 -2 -2
16 16 16 16 16 15 13 12 10 9 9 8 9 8 9 10 10 9 7 6 4 1 -1 -1 -1 -2 -1 -1 -1 -0 0 -0 -0 0 0 -0 -2 -1 -1 -2 -2 -2 -2
18 17 17 16 16 16 14 15 14 13 13 11 11 11 11 11 12 10 9 8 6 4 2 -1 -2 -1 -0 0 0 0 1 0 0 0 -1 -1 -1 -1 -1 -2 -2 -2 -2
18 18 17 17 17 17 16 16 15 14 14 13 13 11 11 12 12 13 11 11 10 7 6 4 -1 -0 1 1 0 0 0 0 1 0 -1 -1 -1 -1 -1 -1 -2 -2 -2
19 18 18 17 18 17 16 16 16 15 15 14 13 13 13 13 14 14 14 13 12 10 9 8 7 1 -0 0 0 0 0 -0 -0 0 0 0 -0 -1 -1 -1 -1 -2 -2
19 19 18 18 18 18 17 17 17 16 15 15 14 14 14 14 14 14 14 14 12 11 11 10 9 7 -0 0 0 0 0 0 0 -0 0 1 -0 -1 -1 -1 -1 -1 -2
19 19 19 18 18 18 18 18 17 17 16 16 15 15 15 15 14 15 15 14 13 13 12 11 9 8 3 -0 0 1 0 0 -0 0 0 1 0 -1 -1 -1 -1 -1 -2
20 20 19 19 19 19 18 18 18 17 17 17 16 15 16 15 15 16 15 15 14 13 12 11 10 8 7 1 1 1 2 3 3 2 2 2 1 0 -1 -1 -1 -1 -1
20 20 20 19 20 19 19 19 18 18 18 17 16 16 16 15 16 16 15 15 15 14 13 12 11 11 10 8 2 3 3 4 4 3 4 3 3 2 -0 -1 -1 -1 -1
21 21 21 20 21 20 20 20 19 19 19 18 17 18 17 16 17 17 16 15 15 15 14 13 13 12 11 10 6 4 5 5 4 4 5 4 3 3 2 -0 0 -0 -1
22 22 21 20 21 20 20 20 20 20 20 19 18 19 18 18 18 17 16 16 16 16 15 15 14 13 11 10 7 4 6 6 6 5 5 4 5 4 3 1 1 1 0
22 22 22 22 22 21 22 22 22 23 21 21 20 20 19 19 19 18 18 17 16 17 17 16 15 14 13 11 9 6 6 7 6 6 6 6 6 4 4 2 1 1 -0
23 23 22 22 22 22 22 22 23 23 22 22 21 21 20 20 19 19 19 18 17 18 18 18 17 16 14 12 13 11 7 6 7 7 8 7 6 7 4 3 1 1 0
24 24 23 22 22 22 24 23 23 22 23 22 23 22 21 21 19 20 19 19 19 19 19 18 18 17 17 15 13 12 8 7 7 9 9 9 9 8 6 5 4 0 0
24 24 24 23 23 23 24 27 28 26 26 24 24 23 22 21 21 20 20 20 19 19 19 18 17 18 17 17 15 11 12 12 7 8 9 9 8 8 6 6 4 2 0
23 26 27 26 25 24 27 28 31 30 28 25 25 24 23 22 21 20 19 19 19 18 18 17 18 17 17 18 16 15 14 12 9 7 8 9 9 9 7 6 6 4 0
26 26 26 25 26 26 27 29 31 34 30 27 27 26 24 23 21 19 18 18 17 17 17 17 16 16 16 16 16 15 15 14 13 10 8 9 9 10 8 7 7 5 1